Regional Weather Roundup
Issued by NWS Newport/Morehead, NC

Current Version | Previous Version | Graphics & Text | Print | Product List | Glossary Off
Versions: 1 2 3 4 5 6 7 8 9 10 11 12 13 14 15 16 17 18 19 20 21 22 23 24 25 26 27 28 29 30 31 32 33 34 35 36 37 38 39 40 41 42 43 44 45 46 47 48 49 50
000 ASUS42 KMHX 310425 RWRMHX WEATHER ROUNDUP FOR EASTERN NORTH CAROLINA NATIONAL WEATHER SERVICE NEWPORT/MOREHEAD CITY NC 1200 AM EDT TUE MAY 31 2016 NOTE: "FAIR" INDICATES FEW OR NO CLOUDS BELOW 12,000 FEET WITH NO SIGNIFICANT WEATHER AND/OR OBSTRUCTIONS TO VISIBILITY NCZ015>017-031-032-045>047-102-103-310500- NORTH COAST CITY SKY/WX TMP DP RH WIND PRES REMARKS EDENTON DRIZZLE N/A N/A N/A CALM 29.95F ELIZABETH CITY CLOUDY 71 68 90 CALM 29.95F KITTY HAWK FOG 68 68 100 CALM 29.93F VSB 3/4 MANTEO NOT AVBL $$ NCZ045>047-081-094-103-104-310500- CENTRAL COAST CITY SKY/WX TMP DP RH WIND PRES REMARKS FRISCO CLOUDY 72 70 93 NW3 29.94F $$ NCZ095-097-098-100-101-310500- SOUTHERN COAST CITY SKY/WX TMP DP RH WIND PRES REMARKS BEAUFORT CLOUDY 73 71 93 E3 29.93F CEDAR ISLAND NOT AVBL JACKSONVILLE CLOUDY 75 72 90 SE5 29.92F PINEY ISLAND NOT AVBL WILMINGTON MOCLDY 72 70 93 E6 29.91F $$ NCZ011>013-027>030-043-044-078>080-089-090>093-098-310500- COASTAL PLAIN CITY SKY/WX TMP DP RH WIND PRES REMARKS AHOSKIE PTCLDY 70 69 97 CALM 29.95F CLINTON CLOUDY 72 72 100 E3 29.92F ELIZABETHTOWN PTCLDY 71 71 100 CALM 29.91F GOLDSBORO NOT AVBL GREENVILLE CLEAR 70 70 100 CALM 29.96F HAVELOCK PTCLDY 72 70 93 NE5 29.94F KENANSVILLE CLOUDY 71 71 98 CALM 29.93F KINSTON PTCLDY 71 70 97 E3 29.94F NEW BERN MOCLDY 72 70 93 NE5 29.94F RICHLANDS PTCLDY 71 70 96 N5 29.93F ROCKY MOUNT CLOUDY 70 70 100 CALM 29.94F WASHINGTON CLOUDY 68 68 98 CALM 29.94F WHITEVILLE CLEAR 71 70 96 CALM 29.90F $$ AMZ130-135-150-152-154-156-158-170-250-252-270-ANZ085-086-088-633-658-670-310500- MARINE OBSERVATIONS STATION/POSITION TIME TEMP WIND PRES WAVE SWELL AIR SEA DIR/SP/G HT/PER HT/PER (UTC) (F) (DEG/KT/KT) (MB) (FT/S) (FT/S) CHESAPEAKE LIGHT 0400 69 90/ 10/ 10 1015.1 64 E VA BEACH 0350 67 64 50/ 10/ 10 1014.3 5/ 7 5/ 7 DUCK 0400 65 59 40/ 3/ 6 1013.3 2 E DUCK 0311 61 N/A 3/ 6 OREGON INLET 0400 70 73 30/ 4/ 6 1013.6 13E OREGON INLT 0400 65 N/A 5/ 6 5/ 6 HATTERAS CG 0400 73 74 250/ 2/ 2 1013.4 DIAMOND BUOY 0350 77 80 230/ 12/ 14 1013.7 5/ 7 5/ 7 CAPE LOOKOUT 0400 75 120/ 5/ 5 1013.2 BEAUFORT LAB 0400 75 76 130/ 4/ 6 1012.7 30 SE NEW RVR IN 0325 76 N/A 5/ 8 27 SE WRIGHTSVLE 0408 72 76 140/ 4/ 8 1012.9 5 SE WRIGHTSVLE 0408 75 77 100/ 10/ 14 1013.6 225 S CAPE HAT 0350 76 76 170/ 12/ 14 1015.5 5/ 8 5/ 8 41 SE CHARLESTON 0350 75 77 210/ 8/ 10 1011.4 4/ 9 3/ 9 $$

USA.gov is the U.S. government's official web portal to all federal, state and local government web resources and services.